[[{"header":{"parameterUnit":"m.s-1","parameterCategory":1,"la1":30.2991,"la2":30.254,"lo1":-89.0895,"lo2":-89.0444,"dy":0.0017,"dx":0.0017,"nx":28,"ny":28,"refTime":"2024-03-04T03:00:00:Z","depth":0,"parameterNumber":2,"parameterNumberName":"U-component_of_WINDS"},"data":[0,0,0,0,0,0,0,0,0,0,0,0,0,0,0,0,0,0,0,0,0,0,0,0,0,0,0,0,0,0,0,0,0,0,0,0,0,0,0,0,0,0,0,0,0,0,0,0,0,0,0,0,0,0,0,0,0,0,-3.3677,-3.3677,0,-3.3656,-3.3656,-3.3655,-3.3536,-3.3533,-3.353,-3.3527,-3.3505,-3.3507,-3.3509,0,0,0,0,0,0,0,0,0,0,0,0,0,-3.3618,-3.362,-3.3677,-3.3677,-3.3677,-3.3656,-3.3656,-3.3655,-3.3536,-3.3533,-3.3529,-3.3526,-3.3505,-3.3507,-3.351,0,0,0,0,0,0,0,0,0,0,0,0,0,-3.3625,-3.362,-3.3677,-3.3615,-3.3609,-3.3656,-3.3656,-3.3655,-3.3537,-3.3532,-3.3528,-3.3524,-3.3504,-3.3507,-3.351,-3.3615,0,0,-3.352,-3.3521,0,0,0,0,0,0,0,0,-3.3625,-3.3627,-3.3624,-3.3619,-3.3613,-3.3594,-3.3626,-3.3642,-3.3538,-3.3564,-3.3527,-3.3522,-3.3538,-3.3538,-3.3544,-3.3614,-3.3613,-3.352,-3.3522,-3.3523,-3.3524,0,0,0,0,0,0,0,-3.3624,-3.3627,-3.3669,-3.3624,-3.3617,-3.3589,-3.3585,-3.3629,-3.3576,-3.3562,-3.3553,-3.3552,-3.3534,-3.3541,-3.3542,-3.3613,-3.352,-3.3523,-3.3524,-3.3526,-3.3771,-3.3776,0,0,0,0,0,0,-3.3632,-3.3628,-3.3669,-3.3668,-3.3608,-3.3593,-3.3589,-3.3604,-3.3575,-3.3566,-3.3556,-3.3546,-3.3538,-3.3539,-3.3541,-3.3663,-3.3523,-3.3526,-3.3528,-3.3767,-3.3773,-3.3778,0,0,0,0,0,0,-3.3632,-3.3637,-3.367,-3.3646,-3.3648,-3.3599,-3.3617,-3.3606,-3.3612,-3.357,-3.356,-3.3572,-3.3534,-3.3537,-3.3598,-3.366,-3.3527,-3.353,-3.3761,-3.3769,-3.3775,-3.3908,0,0,0,0,0,0,-3.363,-3.3638,-3.3676,-3.3647,-3.3649,-3.3727,-3.3621,-3.3609,-3.3618,-3.3606,-3.3583,-3.3575,-3.3531,-3.3594,-3.3601,-3.3662,-3.3533,-3.3755,-3.3765,-3.3773,-3.3897,-3.3918,-3.3936,0,0,0,0,0,-3.3629,-3.3714,-3.3679,-3.3684,-3.3697,-3.3731,-3.3732,-3.368,-3.3624,-3.3663,-3.3636,-3.3576,-3.3654,-3.3602,-3.3609,-3.3672,-3.3751,-3.3762,-3.3772,-3.3889,-3.3914,-3.3936,0,0,0,0,0,0,-3.375,-3.3709,-3.3669,-3.3748,-3.3744,-3.3711,-3.3757,-3.3708,-3.372,-3.3708,-3.3643,-3.3639,-3.371,-3.3697,-3.364,-3.3773,-3.3692,-3.3705,-3.3778,-3.3802,-3.3821,-3.3822,-3.3535,0,0,0,0,0,-3.3787,-3.3818,-3.378,-3.3853,-3.3853,-3.3807,-3.3819,-3.378,-3.3773,-3.3771,-3.3748,-3.3745,-3.3768,-3.3785,-3.3804,-3.3896,-3.389,-3.3943,-3.3963,-3.3979,-3.399,-3.4038,-3.4062,-3.3812,-3.3812,-3.3812,0,0,-3.3861,-3.3842,-3.3865,-3.3877,-3.3869,-3.3903,-3.3806,-3.3845,-3.387,-3.3777,-3.3833,-3.3818,-3.381,-3.3887,-3.392,-3.3878,-3.4058,-3.3992,-3.4005,-3.4007,-3.4052,-3.4075,-3.4096,-3.3819,-3.3818,-3.3817,0,0,-3.4013,-3.4003,-3.4062,-3.4058,-3.4048,-3.4017,-3.4032,-3.4008,-3.3994,-3.405,-3.3981,-3.4011,-3.4052,-3.405,-3.4054,-3.4211,-3.4156,-3.422,-3.4319,-3.4368,-3.4388,-3.4405,-3.4461,-3.4481,-3.4231,-3.4231,-3.4232,0,-3.4106,-3.4154,-3.41,-3.4145,-3.4152,-3.4071,-3.4132,-3.4131,-3.4128,-3.4136,-3.409,-3.4142,-3.413,-3.4207,-3.4246,-3.4252,-3.4267,-3.422,-3.4389,-3.4406,-3.4421,-3.4474,-3.4495,-3.4239,-3.4238,-3.4237,-3.4237,0,-3.427,-3.4305,-3.4355,-3.4356,-3.4369,-3.4422,-3.4376,-3.4397,-3.4359,-3.4333,-3.4393,-3.4377,-3.4393,-3.4409,-3.437,-3.4481,-3.4455,-3.4401,-3.4317,-3.4454,-3.4502,-3.4521,-3.425,-3.4247,-3.4245,-3.4243,0,0,-3.4493,-3.4466,-3.4485,-3.4485,-3.4471,-3.4498,-3.4549,-3.4564,-3.4584,-3.4587,-3.4627,-3.4667,-3.4617,-3.4622,-3.4584,-3.4627,-3.4753,-3.4567,-3.4565,-3.4601,-3.4874,-3.4914,-3.4938,-3.4718,-3.4721,-3.4724,-3.4874,0,-3.4639,-3.4723,-3.4677,-3.4768,-3.48,-3.4726,-3.4771,-3.4768,-3.4747,-3.4772,-3.4749,-3.4778,-3.471,-3.4713,-3.4753,-3.4729,-3.4806,-3.4718,-3.4755,-3.4757,-3.4757,-3.4963,-3.5004,-3.5146,-3.4893,-3.4896,-3.4898,0,-3.4818,-3.4829,-3.4924,-3.4906,-3.4918,-3.4959,-3.4971,-3.4996,-3.4993,-3.4974,-3.4983,-3.4935,-3.4985,-3.4906,-3.4973,-3.4915,-3.4928,-3.4919,-3.4924,-3.4923,-3.4834,-3.4967,-3.519,-3.5211,-3.4928,-3.4925,-3.4923,0,-3.4971,-3.501,-3.5072,-3.5075,-3.5056,-3.5086,-3.508,-3.5072,-3.5086,-3.5097,-3.5105,-3.5123,-3.5132,-3.5147,-3.5106,-3.5052,-3.518,-3.5097,-3.5166,-3.5168,-3.5194,-3.5192,-3.5421,-3.5207,-3.5206,-3.5206,-3.5206,0,-3.5136,-3.5196,-3.514,-3.5178,-3.5245,-3.5193,-3.5261,-3.5246,-3.5241,-3.5276,-3.5214,-3.5248,-3.5192,-3.5221,-3.519,-3.5252,-3.5257,-3.5243,-3.5234,-3.5248,-3.5249,-3.5253,-3.5242,-3.5212,-3.521,-3.5209,-3.5208,0,-3.5315,-3.5281,-3.5343,-3.5322,-3.5318,-3.5368,-3.535,-3.5385,-3.5362,-3.5406,-3.5414,-3.5378,-3.5409,-3.537,-3.5398,-3.5377,-3.5461,-3.5437,-3.5462,-3.5454,-3.5525,-3.5519,-3.5763,-3.5793,-3.5561,-3.5563,-3.5565,0,-3.5422,-3.5467,-3.5452,-3.5471,-3.5469,-3.55,-3.5514,-3.5467,-3.5485,-3.5486,-3.5521,-3.5548,-3.5566,-3.5619,-3.5595,-3.5617,-3.5593,-3.5677,-3.5595,-3.5608,-3.5593,-3.559,-3.5594,-3.5693,-3.5696,-3.5698,-3.57,0,-3.5614,-3.5596,-3.5619,-3.5638,-3.5657,-3.5669,-3.5676,-3.5695,-3.5646,-3.567,-3.5701,-3.5716,-3.5746,-3.5773,-3.5788,-3.5782,-3.5734,-3.5727,-3.5743,-3.5757,-3.5768,-3.5762,-3.5505,-3.572,-3.5718,-3.5717,-3.5716,-3.5715,-3.5759,-3.5797,-3.5793,-3.5821,-3.5823,-3.5832,-3.5864,-3.5847,-3.5872,-3.5893,-3.5864,-3.5904,-3.5902,-3.5918,-3.5919,-3.595,-3.5913,-3.5938,-3.5944,-3.595,-3.5961,-3.5766,-3.5953,-3.5952,-3.5951,-3.5951,-3.595,0,-3.5947,-3.5942,-3.597,-3.5983,-3.6006,-3.5961,-3.5968,-3.599,-3.6026,-3.6029,-3.6049,-3.6087,-3.6114,-3.6095,-3.6118,-3.6147,-3.6125,-3.6154,-3.615,-3.615,-3.5992,-3.5975,-3.6171,-3.6171,-3.6171,-3.6171,-3.6171,-3.6171,-3.6048,-3.6109,-3.6091,-3.6154,-3.6148,-3.6187,-3.6195,-3.6204,-3.6206,-3.6252,-3.6274,-3.6262,-3.6256,-3.6279,-3.6303,-3.6296,-3.6307,-3.6344,-3.633,-3.6182,-3.6161,-3.614,-3.6123,-3.6347,-3.6348,-3.6484,-3.6486,-3.6487]},{"header":{"parameterUnit":"m.s-1","parameterCategory":1,"la1":30.2991,"la2":30.254,"lo1":-89.0895,"lo2":-89.0444,"dy":0.0017,"dx":0.0017,"nx":28,"ny":28,"refTime":"2024-03-04T03:00:00:Z","depth":0,"parameterNumber":3,"parameterNumberName":"V-component_of_WINDS"},"data":[0,0,0,0,0,0,0,0,0,0,0,0,0,0,0,0,0,0,0,0,0,0,0,0,0,0,0,0,0,0,0,0,0,0,0,0,0,0,0,0,0,0,0,0,0,0,0,0,0,0,0,0,0,0,0,0,0,0,0.7261,0.7261,0,0.7289,0.729,0.729,0.7338,0.7339,0.734,0.7341,0.7365,0.7365,0.7365,0,0,0,0,0,0,0,0,0,0,0,0,0,0.7246,0.7246,0.7261,0.7261,0.7261,0.7289,0.729,0.729,0.7338,0.7339,0.7341,0.7342,0.7365,0.7365,0.7365,0,0,0,0,0,0,0,0,0,0,0,0,0,0.7261,0.7246,0.7261,0.7289,0.7292,0.7289,0.729,0.729,0.7338,0.7339,0.7341,0.7342,0.7366,0.7365,0.7365,0.7335,0,0,0.7364,0.7364,0,0,0,0,0,0,0,0,0.726,0.7261,0.7284,0.7287,0.729,0.7312,0.7293,0.7305,0.7338,0.732,0.7341,0.7343,0.7346,0.7347,0.735,0.7336,0.7337,0.7364,0.7364,0.7364,0.7363,0,0,0,0,0,0,0,0.7259,0.726,0.7272,0.7285,0.7288,0.73,0.7303,0.7296,0.7325,0.7322,0.7326,0.7329,0.7348,0.735,0.7351,0.7338,0.7364,0.7364,0.7363,0.7363,0.7304,0.7302,0,0,0,0,0,0,0.7254,0.7259,0.7271,0.7273,0.7278,0.7299,0.7303,0.7303,0.7325,0.733,0.7327,0.7331,0.735,0.7351,0.7352,0.7319,0.7364,0.7363,0.7363,0.7305,0.7303,0.7302,0,0,0,0,0,0,0.7253,0.7255,0.727,0.7267,0.727,0.7298,0.7298,0.7303,0.7305,0.7329,0.7334,0.7324,0.7351,0.7352,0.734,0.7321,0.7363,0.7363,0.7307,0.7304,0.7303,0.7254,0,0,0,0,0,0,0.7253,0.7254,0.7243,0.7266,0.727,0.7258,0.7297,0.7303,0.7305,0.731,0.7328,0.7332,0.7352,0.734,0.7339,0.7321,0.7363,0.7308,0.7306,0.7303,0.7257,0.725,0.7245,0,0,0,0,0,0.7252,0.7227,0.7243,0.7244,0.7257,0.7257,0.7259,0.7284,0.7303,0.7293,0.7309,0.7331,0.7323,0.7338,0.7338,0.7319,0.731,0.7306,0.7303,0.726,0.7252,0.7245,0,0,0,0,0,0,0.7199,0.723,0.7248,0.723,0.7241,0.7265,0.7252,0.7274,0.7278,0.7282,0.7311,0.7315,0.7299,0.7308,0.7324,0.7293,0.732,0.7317,0.7287,0.728,0.7273,0.7271,0.7362,0,0,0,0,0,0.7185,0.7184,0.7211,0.7192,0.7197,0.7224,0.7224,0.7243,0.7255,0.7259,0.7274,0.7283,0.7283,0.7282,0.7283,0.726,0.7264,0.7247,0.724,0.7235,0.7231,0.7221,0.7214,0.7292,0.7292,0.7292,0,0,0.7156,0.7174,0.717,0.7182,0.7193,0.7189,0.7227,0.7221,0.7219,0.7258,0.7248,0.7259,0.7271,0.7254,0.7247,0.7261,0.7211,0.7231,0.7227,0.7226,0.7217,0.721,0.7203,0.7289,0.729,0.729,0,0,0.7103,0.7116,0.7102,0.7113,0.7129,0.7148,0.7145,0.7167,0.7176,0.7168,0.7197,0.7194,0.7193,0.7201,0.7205,0.7158,0.7179,0.7157,0.7123,0.7113,0.7107,0.7101,0.7085,0.7079,0.7154,0.7154,0.7154,0,0.7064,0.7062,0.7092,0.7086,0.7091,0.7128,0.7115,0.7123,0.7138,0.714,0.7156,0.7157,0.7168,0.7154,0.7143,0.7144,0.7141,0.7155,0.7106,0.7101,0.7096,0.7081,0.7074,0.7151,0.7151,0.7152,0.7152,0,0.7015,0.7013,0.7,0.7016,0.7019,0.7009,0.7038,0.7037,0.7057,0.7073,0.7064,0.7079,0.7085,0.7083,0.71,0.7071,0.708,0.71,0.7128,0.7085,0.7071,0.7066,0.7147,0.7148,0.7149,0.7149,0,0,0.6925,0.6961,0.6956,0.6965,0.6987,0.6986,0.6978,0.6986,0.6985,0.6995,0.6989,0.6988,0.7009,0.7013,0.7032,0.7023,0.6986,0.7045,0.7046,0.7034,0.6956,0.694,0.6932,0.7001,0.7,0.6999,0.6955,0,0.6876,0.6866,0.6894,0.6877,0.6876,0.6913,0.6906,0.6919,0.6935,0.6936,0.6953,0.6953,0.6979,0.6982,0.6975,0.6992,0.697,0.6996,0.6995,0.6994,0.699,0.6925,0.6908,0.6865,0.6949,0.6949,0.6948,0,0.6816,0.6826,0.6809,0.6835,0.6835,0.6829,0.6839,0.684,0.6855,0.6868,0.6875,0.6898,0.6892,0.692,0.6912,0.6928,0.693,0.6939,0.6938,0.6938,0.6968,0.6923,0.6852,0.6846,0.6939,0.694,0.6941,0,0.6753,0.6762,0.6754,0.676,0.6789,0.6784,0.6796,0.6813,0.6817,0.6826,0.6828,0.6835,0.6839,0.6844,0.6869,0.6887,0.6858,0.6888,0.6868,0.6867,0.6859,0.6859,0.6787,0.6861,0.6861,0.6861,0.6861,0,0.6695,0.6683,0.6726,0.672,0.6709,0.6742,0.6729,0.6744,0.676,0.6758,0.679,0.6787,0.6821,0.6821,0.6841,0.6832,0.6833,0.6842,0.6847,0.6839,0.6838,0.684,0.6843,0.6859,0.686,0.686,0.686,0,0.6621,0.665,0.6643,0.6673,0.6681,0.6671,0.6696,0.6692,0.6711,0.6708,0.671,0.6739,0.6742,0.6768,0.6776,0.6789,0.6772,0.6783,0.6768,0.6771,0.675,0.6751,0.6675,0.6667,0.6747,0.6746,0.6745,0,0.6582,0.6574,0.6604,0.6606,0.6617,0.662,0.6625,0.6657,0.6661,0.668,0.6673,0.668,0.6686,0.6689,0.671,0.6717,0.6728,0.6702,0.6729,0.6722,0.6728,0.6728,0.6727,0.6695,0.6694,0.6693,0.6692,0,0.6509,0.6524,0.653,0.6542,0.6548,0.6558,0.657,0.657,0.6606,0.6608,0.6613,0.6619,0.6629,0.6634,0.6645,0.6656,0.668,0.6684,0.668,0.6671,0.6662,0.6667,0.6751,0.6685,0.6686,0.6686,0.6687,0.6687,0.6451,0.6447,0.6468,0.6475,0.6488,0.65,0.6498,0.6519,0.6524,0.6536,0.6555,0.6557,0.6574,0.6592,0.6602,0.6604,0.6617,0.6611,0.6609,0.6607,0.6603,0.6663,0.6606,0.6606,0.6606,0.6606,0.6607,0,0.638,0.6396,0.6402,0.642,0.6425,0.645,0.6466,0.6468,0.647,0.6486,0.6493,0.6499,0.6505,0.6528,0.6537,0.6534,0.6545,0.6535,0.6535,0.6538,0.659,0.6593,0.6526,0.6526,0.6526,0.6526,0.6526,0.6526,0.6343,0.6337,0.6356,0.6357,0.6374,0.6378,0.6385,0.6396,0.6408,0.6414,0.6421,0.6437,0.6456,0.6467,0.6474,0.648,0.6482,0.6468,0.6478,0.6526,0.6534,0.6541,0.6544,0.6468,0.6468,0.6426,0.6425,0.6425]}]]